sat.trackr.live / text

‹ back to catalog

STARLINK-6095

NORAD 56101 · 2023-046J

PAYLOAD ACTIVE UNKNOWN

§ Identity

Operator
Country
US
Launch date
2023-03-29
Launch site
AFETR
Launch vehicle
Mass (kg)
RCS (m²)

Purposes: comms

External: N2YO · Heavens-Above · Gunter

§ Orbital elements

Epoch: 2026-05-24T20:32:05.209440Z

Period
94.27 min
Inclination
43.0045°
Eccentricity
0.0001313
Mean motion
15.27575206 rev/d
Perigee alt
482.2 km
Apogee alt
484.0 km
Semi-major
6,861.2 km
B*
3.3885e-5
RAAN
91.1053°
Arg perigee
267.6932°
Mean anomaly
92.3770°
Rev number
17,368

§ Raw data

STARLINK-60951 56101U 23046J   26144.85561585  .00000670  00000+0  33885-4 0  99912 56101  43.0045  91.1053 0001313 267.6932  92.3770 15.27575206173686

JSON: /api/v1/satellites/56101 · /tle

For live sub-satellite position, see the globe view (requires WebGL).

§ Visibility from observer

Set your observer location to see the next 7 days of passes ≥ 10°. The values pass through the URL so the page stays shareable.

No JS? Fill the form by hand. The geolocation button needs JavaScript.